User: anonymous   Login
Location: Unspecified
(0.0000°N, 0.0000°E)
Time: 06:44:03
(UTC+00:00)
Language:

EQUISAT - Orbit

View from above orbital plane
View from above orbital plane
View from above satellite
View from above satellite

Ground track
Ground track

The orbit data is extracted from the following two-line orbital elements,

1 43552U 98067PA  20223.45642666 +.00034419 +00000-0 +20907-3 0  9999
2 43552 051.6315 010.6392 0004464 305.2175 054.8407 15.77150535118720
Epoch (UTC): 10 August 2020 10:57:15
Eccentricity: 0.0004464
inclination: 51.6315°
perigee height: 335 km
apogee height: 341 km
right ascension of ascending node: 10.6392°
argument of perigee: 305.2175°
revolutions per day: 15.77150535
mean anomaly at epoch: 54.8407°
orbit number at epoch: 11872

The dashed part of the orbit path shows where the satellite is in the earth's shadow,  

DLR